Tracking 35331 objects as of 14-Sep-2026
HD Live streaming from Space Station
objects crossing your sky now

RADUGA 26

Track RADUGA 26 now!
RADUGA 26 is classified as:


NORAD ID: 21016
Int'l Code: 1990-112A
Launch date: December 20, 1990
Source: Commonwealth of Independent States (former USSR) (CIS)
Launch site: TYURATAM MISSILE AND SPACE COMPLEX (TTMTR)
Your satellite tracking list
Your tracking list is empty




NASA's NSSDC Master Catalog

Two Line Element Set (TLE):
1 21016U 90112A   26256.80178817  .00000056  00000-0  00000-0 0  9995
2 21016  12.7593 337.2873 0002923 128.5739 229.7384  1.00288790131143
Source of the keplerian elements: AFSPC